Simultaneous Nadir Overpasses (SNOs) Predictions

Prediction of SNOs between GOES-15 and METOP-C Satellite Orbit:

Table of predicted SNOs for the next 14.0 days since TLE Epoch: 8/28/2021
Index Date Time (GOES-15) GOES-15 Lat,Lon METOP-C Lat,Lon Distance(km) Time Diff (sec)
1 08/29/2021 06:10:55 0.21,-128.28 -0.21,-130.26 225.21 80
2 08/30/2021 05:52:54 0.19,-128.28 0.88,-125.26 344.30 80
3 08/31/2021 18:09:05 -0.22,-128.24 0.14,-129.82 181.03 80
4 09/01/2021 17:51:04 -0.20,-128.23 -0.95,-124.82 388.39 80
5 09/03/2021 06:07:24 0.23,-128.26 -0.04,-129.43 132.92 80
6 09/04/2021 05:49:24 0.21,-128.25 1.05,-124.43 435.77 80
7 09/05/2021 18:05:34 -0.25,-128.19 -0.05,-128.99 90.81 80
8 09/06/2021 17:47:34 -0.23,-128.19 -1.14,-123.99 477.99 80
9 09/08/2021 06:03:55 0.26,-128.21 0.20,-128.60 43.80 80
10 09/10/2021 18:02:04 -0.27,-128.13 -0.24,-128.15 3.98 80
